Location: Dana
(41.8364°N, 106.7042°W)
Time: 11:28:54
(UTC+00:00)

Tiros 1 despin weight - Pass Details

Date: 12 May 2026
Orbit: 554 x 591 km, 48.2° (Epoch: 10 June)

Event Time Altitude Azimuth Distance (km) Brightness Sun altitude
Rises 16:56:55 0° 293° (WNW) 2,733 ? 54.3°
Reaches altitude 10° 16:59:17 10° 301° (WNW) 1,835 ? 54.7°
Maximum altitude 17:03:13 38° 11° (N) 849 ? 55.3°
Drops below altitude 10° 17:07:09 10° 81° (E) 1,833 ? 55.9°
Sets 17:09:31 0° 89° (E) 2,729 ? 56.2°
